Вернуться в каталог

SL-14 DEB

АктивенPO
NORAD 35521·DEBRIS·🇷🇺 Russia

Запущен Aug 18, 1987 с Plesetsk Cosmodrome

Loading…

Ближайшие Пролёты (ближайшие 24 часа)

TLE

СвежийSource: Space-Track

Эпоха: Sep 13, 2026, 14:11 UTC

1 35521U 87068CQ  26256.59155387  .00000241  00000-0  18687-3 0  9999
2 35521  82.5580 199.7780 0011268  77.0872  45.0794 13.88887494669220

Отслеживайте SL-14 DEB в реальном времени с AllMySat

Download on the App Store